Terug naar catalogus

IRIDIUM 33 DEB

ActiefPO
NORAD 33862·DEBRIS·🇺🇸 United States

Gelanceerd Sep 14, 1997 vanaf Baikonur Cosmodrome

Loading…

Volgende Passages (komende 24 uur)

TLE

VersSource: Space-Track

Epoch: Sep 14, 2026, 00:23 UTC

1 33862U 97051AF  26257.01642935  .00001999  00000-0  29458-3 0  9995
2 33862  86.4043 275.5772 0047787 189.0055 201.0314 14.74042394928744

Volg IRIDIUM 33 DEB in realtime met AllMySat

Download on the App Store